2778 visiteurs
Prévisions de votre ville :
Vigilance : 38 départements 42 départements Mise à jour le 14/10/2019 à 10:12 - Voir la carte

Paris Roissy CDG (95380) le 14/10/2019 à 15:30 Choisir station

24°C 50 % SE Vit. moyenne 24 kmh/h

Relevés météo quotidiens pour la station de :

UTC
S: Synop
M: Metar
Loc T°C
(°C)
Td
(°C)
HR
(%)
Vis
(km)
Néb
(octa)
Vent
(km/h)
Pression
(mb)
Précipitations
(mm)
Temps
              MOY
10 min
DIR RAF 1h MESURE VAR SUR 3h    
S 00 h 02h 20.7 19.0 90 18 8/8 2 7 1019.6 +1.8/3h 0.2/6h - 0.0/3h
S 01 h 03h 20.6 19.1 91 15 8/8 7 15 1019.6 +1.1/3h 0.0/1h
S 02 h 04h 20.4 18.9 91 16 8/8 6 11 1019.8 +0.5/3h 0.0/1h
S 03 h 05h 19.8 18.6 93 17 8/8 2 9 1020.1 +0.4/3h 0.0/3h
S 04 h 06h 20.0 17.2 84 45 8/8 2 7 1020.6 +0.9/3h 0.0/1h
S 05 h 07h 20.5 16.5 78 30 7/8 4 6 1020.7 +0.9/3h 0.0/1h
S 06 h 08h 21.8 16.5 72 40 - 9 13 1021.2 +1.3/3h 0.2/12h - 0.0/3h - 0.2/24h -
S 07 h 09h 23.0 17.0 69 35 - 4 15 1021.5 +1.2/3h 0.0/1h -
S 08 h 10h 23.7 16.7 65 40 6/8 6 15 1021.7 +1.2/3h 0.0/1h
S 09 h 11h 25.2 17.1 61 40 8/8 4 9 1021.9 +1.0/3h 0.0/3h
S 10 h 12h 26.7 17.2 56 30 6/8 2 7 1021.6 +0.4/3h 0.0/1h
S 11 h 13h 27.8 17.0 52 18 - 4 15 1021.3 0.0/3h 0.0/1h -
S 12 h 14h 29.8 16.2 44 35 - 9 20 1020.7 -0.8/3h 0.0/6h - 0.0/3h -
S 13 h 15h 29.7 16.5 45 29 6/8 9 19 1020.3 -1.0/3h 0.0/1h
S 14 h 16h 31.3 16.1 40 45 7/8 9 28 1019.8 -1.1/3h 0.0/1h
S 15 h 17h 30.7 15.5 40 40 6/8 4 15 1019.7 -0.9/3h 0.0/3h
S 16 h 18h 31.8 14.4 35 35 - 4 11 1019.1 -1.0/3h 0.0/1h -
S 17 h 19h 31.4 13.2 33 35 - 11 24 1019.0 -0.8/3h 0.0/1h -
S 18 h 20h 30.7 12.1 32 55 - 11 22 1019.6 -0.1/3h 0.0/12h - 0.0/3h -
S 19 h 21h 28.4 11.9 36 35 - 11 22 1020.2 +0.7/3h 0.0/1h -
S 20 h 22h 24.3 11.6 45 45 - 4 13 1021.2 +1.4/3h 0.0/1h -
S 21 h 23h 22.3 12.3 53 45 - - - 9 1021.8 +1.3/3h 0.0/3h -
S 22 h 00h 19.8 13.5 67 45 - 6 9 1022.3 +1.3/3h 0.0/1h -
S 23 h 01h 19.2 13.4 69 40 - - - 9 1022.9 +1.2/3h 0.0/1h -
evolution des temperatures
cumul des precipitations
vent moyen et rafales
pression atmospherique

Un tiret (-) signifie que les données ne sont pas disponibles.

Passez la souris sur les pictos temps pour avoir plus de précisions. Passez les flèches sur l'icône de la direction du vent pour voir la direction précise en degrés.

Les données de l'heure en cours sont disponibles à partir de H+15 minutes.


S signifie station Synop, plus complète qu'une station Metar (M). Il y a +1h de différence entre l'heure UTC et l'heure légale en hiver et +2h en été.

Td est la mesure du point de rosée.

HR est l'humidité relative/p>

Vis est la visibilité

Néb est la nébulosité du ciel (couverture nuageuse) exprimée en octas (de 0/8 à 8/8).

Vent moy 10 min donne le vent moyen sur les 10 minutes qui précèdent le relevé.

Vent raf 1h donne la rafale maximale mesurée dans l'heure qui précède le relevé.


Les données les plus anciennes remontent à avril 2014.

Les données présentées sur cette page proviennent des stations météo officielles. Les relevés sont effectués aux normes en vigueur (anémomètre à 10m de haut, thermomètre sous abri normalisé à 2m du sol...)

Météo 60 décline toute responsabilité en cas d'absence de données, d'erreurs, de mauvaise utilisation ou interprétation et n'est pas habilité à fournir des certificats intempéries.